Volver al catálogo

STARLINK-36106

ActivoComunicacionesVLEO
NORAD 67018·PAYLOAD·🇺🇸 United States

Lanzado Dec 10, 2025 desde Vandenberg Space Force Base

Loading…

Próximos Pases (próximas 24 horas)

TLE

ActualizadoSource: CelesTrak SupGP

Época: Sep 14, 2026, 21:45 UTC

1 67018C 25293R   26257.90673611 -.00039555  00000+0 -33152-2 0  2579
2 67018  70.0021 337.2448 0003509 270.9344  97.3443 14.98345329    10

Sigue STARLINK-36106 en tiempo real con AllMySat

Download on the App Store